This demonstration page uses our WeatherBlox Daily Observations layout. Learn more.

Left ArrowRight Arrow

39.08367, -84.50855

Hourly Observations for March 19, 2018

Temp ( °F °C ) Dew Point ( °F °C ) Humidity (%) Winds ( mph kmh ) Pressure ( in mb ) Visibility ( mi km ) Precip ( " mm )
12:53 am 00:53 Clear 34 1.1 30 -1.1 85 85 ENE 3 6 29.90 1013 10 16 N/A
1:53 am 01:53 Clear 33 0.6 30 -1.1 89 89 N N/A 29.90 1012 10 16 N/A
2:53 am 02:53 Clear 31 -0.6 28 -2.2 89 89 N N/A 29.90 1013 10 16 N/A
3:53 am 03:53 Cloudy 34 1.1 30 -1.1 85 85 NE 5 7 29.88 1012 10 16 N/A
4:53 am 04:53 Cloudy 35 1.7 31 -0.6 85 85 N N/A 29.87 1012 10 16 N/A
5:53 am 05:53 Cloudy 37 2.8 31 -0.6 79 79 N N/A 29.86 1011 10 16 N/A
6:53 am 06:53 Mostly Cloudy 35 1.7 32 undefined 89 89 N N/A 29.87 1011 10 16 N/A
7:53 am 07:53 Cloudy 37 2.8 32 undefined 82 82 N N/A 29.87 1012 10 16 N/A
8:53 am 08:53 Partly Cloudy 41 5 34 1.1 76 76 N N/A 29.87 1012 10 16 N/A
9:53 am 09:53 Sunny 46 7.8 31 -0.6 56 56 NE 5 7 29.87 1011 10 16 N/A
10:53 am 10:53 Sunny 51 10.6 29 -1.7 43 43 ENE 12 19 29.85 1011 10 16 N/A
11:53 am 11:53 Sunny 57 13.9 28 -2.2 33 33 ENE 16 26 29.84 1010 10 16 N/A
12:53 pm 12:53 Sunny 59 15 27 -2.8 29 29 E 10 17 29.82 1010 10 16 N/A
1:53 pm 13:53 Sunny 61 16.1 29 -1.7 30 30 NE 10 17 29.80 1009 10 16 N/A
2:53 pm 14:53 Sunny 62 16.7 30 -1.1 30 30 NE 12 19 29.76 1008 10 16 N/A
3:53 pm 15:53 Sunny 62 16.7 29 -1.7 29 29 ENE 12 19 29.71 1006 10 16 N/A
4:53 pm 16:53 Mostly Sunny 60 15.6 30 -1.1 32 32 ENE 14 22 29.70 1006 10 16 N/A
5:53 pm 17:53 Cloudy 59 15 28 -2.2 31 31 ENE 15 24 29.68 1005 10 16 N/A
6:53 pm 18:53 Cloudy 58 14.4 28 -2.2 32 32 NE 13 20 29.66 1005 10 16 N/A
7:53 pm 19:53 Mostly Cloudy 57 13.9 28 -2.2 33 33 NE 14 22 29.66 1004 10 16 N/A
8:53 pm 20:53 Cloudy 55 12.8 28 -2.2 35 35 ENE 15 24 29.67 1005 10 16 N/A
9:53 pm 21:53 Cloudy 51 10.6 30 -1.1 44 44 NNE 17 28 29.70 1006 10 16 N/A
10:53 pm 22:53 Cloudy with Light Rain 46 7.8 33 0.6 61 61 NE 15 24 29.70 1006 10 16 0.01 0.25
11:53 pm 23:53 Cloudy 43 6.1 34 1.1 71 71 NNE 14 22 29.66 1004 10 16 0.03 0.76

Powered by AerisWeather